Regional Weather Roundup
Issued by NWS

Home | Current Version | Previous Version | Text Only | Print | Product List | Glossary Off
Versions: 1 2 3 4 5 6 7 8 9 10 11 12 13 14 15 16 17 18 19 20 21 22 23 24 25 26 27 28 29 30 31 32 33 34 35 36 37 38 39 40 41 42 43 44 45 46 47 48 49 50

000
ASUS43 KLOT 281706
RWRIL

ILLINOIS REGIONAL WEATHER ROUNDUP
NATIONAL WEATHER SERVICE CHICAGO/ROMEOVILLE IL
1100 AM CST FRI NOV 28 2014

NOTE: "FAIR" INDICATES FEW OR NO CLOUDS BELOW 12,000 FEET WITH NO
SIGNIFICANT WEATHER AND/OR OBSTRUCTIONS TO VISIBILITY.

* THESE STATIONS ARE NOT UNDER NWS QUALITY CONTROL. THEY ALSO MAY NOT
  REPORT WEATHER SUCH AS PRECIPITATION OR FOG.

ILZ001-002-007-009-015-016-024-281800-
NORTHWEST ILLINOIS

CITY           SKY/WX    TMP DP  RH WIND       PRES   REMARKS
MOLINE         CLOUDY    27  20  75 SE13      30.05F WCI  16
STERLING*      PTSUNNY   27  18  69 SE8       30.09F WCI  18
SAVANNA*       CLOUDY    26  19  74 SE14      30.07F WCI  14
$$

ILZ003-004-008-010-011-017-018-281800-
NORTH CENTRAL ILLINOIS

CITY           SKY/WX    TMP DP  RH WIND       PRES   REMARKS
ROCKFORD       CLOUDY    24  14  65 SE18G24   30.11F WCI  10
FREEPORT*      CLOUDY    23  16  74 SE14      30.10F WCI  10
ROCHELLE*      CLOUDY    25  18  77 SE21G26   30.10F WCI  10
DE KALB*       PTSUNNY   22  15  73 SE18      30.11F WCI   8
PERU*          FAIR      28  22  76 SE20G28   30.11F WCI  15
$$

ILZ005-006-012>014-019>023-281800-
NORTHEAST ILLINOIS

CITY           SKY/WX    TMP DP  RH WIND       PRES   REMARKS
CHICAGO-OHARE  PTSUNNY   25  16  68 S13       30.16F WCI  14
CHICAGO-MIDWAY PTSUNNY   28  15  58 S14G23    30.18F WCI  17
AURORA         MOSUNNY   25  14  63 SE16      30.14F WCI  12
LANSING*       PTSUNNY   28  16  62 S16       30.21F WCI  15
JOLIET*        MOSUNNY   26  15  61 SE13      30.17F WCI  15
WAUKEGAN       PTSUNNY   23  14  68 SE10      30.14F WCI  12
DUPAGE AIRPORT SUNNY     24  13  62 SE13      30.14F WCI  12
KANKAKEE*      MOSUNNY   29  16  58 SE13      30.20F WCI  18
WHEELING       MOSUNNY   24  16  71 S15       30.18F WCI  11
MORRIS*        SUNNY     28  20  71 SE20      30.14F WCI  15
NORTHERLY ISL    N/A     27  17  66 S9          N/A  WCI  18
$$

LMZ740>746-281800-
SOUTHERN LAKE MICHIGAN

STATION/POSITION SKY/WX   TEMP    WIND        PRES    VSBY  WAVE
                          AIR SEA DIR/SP/G                  HT/PER
                          (F)     (DEG/KT/KT) (MB)    (MI)  (FT/S)
SOUTHERN BUOY              28 42  190/ 17/ 21 1023.1F         3/ 4
WAUKEGAN HARBOR            25     170/ 13/ 17   N/A
HARRISON CRIB              24     170/ 19/ 22   N/A
BURNHAM HARBOR             27     160/ 10/ 15   N/A
CALUMET HARBOR             26     160/ 11/ 16 1021.1F
MICHIGAN CITY              24     150/ 13/ 17   N/A
$$

ILZ025>027-034>036-040-047-049-050-058-095>099-281800-
WEST-CENTRAL ILLINOIS

CITY           SKY/WX    TMP DP  RH WIND       PRES   REMARKS
QUINCY         SUNNY     38  27  64 S14       30.03F WCI  30
GALESBURG*     PTSUNNY   28  23  82 SE14G20   30.05F WCI  16
MACOMB*        MOSUNNY   30  26  83 S18       30.07F WCI  18
JACKSONVILLE*  MOSUNNY   36  28  73 S18G25    30.09F WCI  26
PITTSFIELD*    SUNNY     38  30  73 S12       30.07F WCI  30
$$

ILZ028>032-037-038-041>044-048-051>054-059>061-281800-
CENTRAL ILLINOIS

CITY           SKY/WX    TMP DP  RH WIND       PRES   REMARKS
PONTIAC        MOSUNNY   31  25  76 SE21      30.15F WCI  19
BLOOMINGTON    PTSUNNY   32  27  82 S23G30    30.13F WCI  19
DECATUR        PTSUNNY   31  25  78 S14       30.17F WCI  21
PEORIA         PTSUNNY   31  23  72 S22       30.10F WCI  18
LACON*         PTSUNNY   31  24  75 S15G22    30.08F WCI  20
LINCOLN*       PTSUNNY   32  26  78 S17       30.15F WCI  21
SPRINGFIELD    MOSUNNY   33  27  78 S21G29    30.13F WCI  21
TAYLORVILLE    PTSUNNY   32  28  86 S20G25    30.15F WCI  20
$$

ILZ033-039-045-046-055>057-062-063-281800-
EAST-CENTRAL ILLINOIS

CITY           SKY/WX    TMP DP  RH WIND       PRES   REMARKS
CHAMPAIGN      MOSUNNY   31  25  78 S22G28    30.19F WCI  18
DANVILLE*      PTSUNNY   28  21  74 SE14      30.20F WCI  17
MATTOON        MOSUNNY   32  25  75 S15G23    30.21F WCI  22
PARIS*         CLOUDY    32  26  80 S15       30.25F WCI  21
$$

ILZ079-100>102-281800-
SOUTHWEST ILLINOIS

CITY           SKY/WX    TMP DP  RH WIND       PRES   REMARKS
ALTON          MOSUNNY   37  30  75 S17G25    30.16F WCI  28
BELLEVILLE     SUNNY     38  31  78 S15G24    30.17F WCI  29
CAHOKIA*       SUNNY     39  30  70 S13       30.17F WCI  31
SPARTA*        SUNNY     37  29  75 S15G22    30.21F WCI  27
$$

ILZ064>066-069>071-074>076-080>082-084>086-088>090-092>094-281800-
SOUTH-CENTRAL ILLINOIS

CITY           SKY/WX    TMP DP  RH WIND       PRES   REMARKS
CARBONDALE     SUNNY     40  29  64 S17       30.25F
CAIRO*         SUNNY     42  31  67 S10G20    30.31F
EFFINGHAM*     MOSUNNY   33  24  69 S13G21    30.23F WCI  24
MARION         SUNNY     41  32  70 S17       30.26F
MT. VERNON     SUNNY     36  28  75 S17       30.26F WCI  25
CENTRALIA*     SUNNY     36  28  72 S14       30.23F WCI  27
SALEM*           N/A     37  29  72 S13G18    30.23F WCI  29
METROPOLIS*    SUNNY     41  31  68 S10G17      N/A
$$

ILZ067-068-072-073-078-083-087-091-281800-
SOUTHEAST ILLINOIS

CITY           SKY/WX    TMP DP  RH WIND       PRES   REMARKS
LAWRENCEVILLE  SUNNY     34  28  79 S16       30.31F WCI  24
FLORA*         SUNNY     33  28  80 S15       30.27F WCI  23
FAIRFIELD*     SUNNY     34  29  79 SE12      30.27F WCI  26
HARRISBURG*    SUNNY     39  31  73 S15       30.28F WCI  30
ROBINSON*      MOSUNNY   34  27  76 S16       30.30F WCI  24
CARMI*         SUNNY     36  32  86 SE14      30.29F WCI  27
$$

ABBREVIATIONS USED IN REMARKS
   TC - TEMPERATURE IN CELSIUS
  WCI - WIND CHILL INDEX
   HX - HEAT INDEX
  VSB - VISIBILITY
$$




USA.gov is the U.S. government's official web portal to all federal, state and local government web resources and services.